Weather History for Hastings, NE

Change the Weather History Date:

Thursday, March 22, 2012

  Actual Average Record
Temperature  
Mean Temperature 51 °F 42 °F  
Max Temperature 60 °F 54 °F 89 °F (1910)
Min Temperature 41 °F 31 °F 6 °F (1955)
Degree Days  
Heating Degree Days 14 23  
Month to date heating degree days 329 589  
Since 1 July heating degree days 4689 5219  
Cooling Degree Days 0 0  
Month to date cooling degree days 11 0  
Year to date cooling degree days 11 0  
Growing Degree Days 2 (Base 50)    
Moisture  
Dew Point 44 °F    
Average Humidity 74    
Maximum Humidity 100    
Minimum Humidity 47    
Precipitation  
Precipitation 0.01 in 0.07 in 0.90 in (1979)
Month to date precipitation 0.85 1.05  
Year to date precipitation 2.66 1.95  
Snow  
Snow 0.00 in 0.10 in 8.50 in (1944)
Month to date snowfall 0.0 3.9  
Since 1 July snowfall 22.5 26.3  
Snow Depth 0.00 in    
Sea Level Pressure  
Sea Level Pressure 29.89 in    
Wind  
Wind Speed 4 mph (SSE)    
Max Wind Speed 24 mph    
Max Gust Speed 29 mph    
Visibility 8 miles    
Events Fog , Rain    
T = Trace of Precipitation, MM = Missing Value Source: NWS Daily Summary

Daily Weather History Graph

Daily Weather History Graph

Search for Another Location

Airport:

Trip Planner

Search our weather history database for the weather conditions in past years. The results will help you decide how hot, cold, wet, or windy it might be!

Date:

Astronomy

Mar. 22, 2012 Rise Set
Actual Time 7:32 AM CDT 7:48 PM CDT
Civil Twilight 7:05 AM CDT 8:15 PM CDT
Nautical Twilight 6:33 AM CDT 8:47 PM CDT
Astronomical Twilight 6:01 AM CDT 9:20 PM CDT
Moon 7:12 AM CDT 8:15 PM CDT
Length of Visible Light 13h 10m
Length of Day
12h 15m
New Moon, 0% of the Moon is Illuminated
Mar 22
New Moon
Mar 30
First Quarter
Apr 6
Full
Apr 13
Last Quarter
Apr 21
New

Hourly Weather History & Observations

Time (CDT) Temp. Windchill Dew Point Humidity Pressure Visibility Wind Dir Wind Speed Gust Speed Precip Events Conditions
12:53 AM 57.0 °F - 55.0 °F 93% 29.78 in 4.0 mi ENE 17.3 mph 26.5 mph 0.02 in Rain Light Rain
1:53 AM 54.0 °F - 52.0 °F 93% 29.81 in 10.0 mi SE 13.8 mph - 0.01 in   Overcast
2:05 AM 53.6 °F - 51.8 °F 94% 29.81 in 10.0 mi SE 9.2 mph - N/A   Overcast
2:46 AM 50.0 °F - 48.2 °F 94% 29.83 in 10.0 mi South 3.5 mph - 0.00 in   Overcast
2:53 AM 51.1 °F - 48.9 °F 92% 29.83 in 10.0 mi SSE 4.6 mph - 0.00 in   Overcast
3:16 AM 50.0 °F - 48.2 °F 94% 29.85 in 10.0 mi SSE 4.6 mph - N/A   Overcast
3:42 AM 50.0 °F - 46.4 °F 87% 29.85 in 10.0 mi South 9.2 mph - N/A   Mostly Cloudy
3:53 AM 48.9 °F - 46.0 °F 90% 29.85 in 10.0 mi SSE 8.1 mph - N/A   Scattered Clouds
4:53 AM 46.9 °F - 45.0 °F 93% 29.85 in 10.0 mi SSE 3.5 mph - N/A   Partly Cloudy
5:42 AM 44.6 °F - 42.8 °F 93% 29.85 in 1.5 mi Calm Calm - N/A   Clear
5:50 AM 44.6 °F - 42.8 °F 93% 29.85 in 0.5 mi Calm Calm - N/A Fog Fog
5:53 AM 44.1 °F - 42.1 °F 93% 29.86 in 0.5 mi Calm Calm - N/A Fog Fog
6:11 AM 44.6 °F - 42.8 °F 93% 29.87 in 2.5 mi Calm Calm - N/A   Partly Cloudy
6:20 AM 44.6 °F 39.7 °F 42.8 °F 93% 29.87 in 0.8 mi SE 9.2 mph - N/A   Mist
6:53 AM 44.1 °F 41.5 °F 44.1 °F 100% 29.90 in 0.2 mi SE 4.6 mph - N/A Fog Fog
7:48 AM 44.6 °F - 44.6 °F 100% 29.91 in 2.0 mi Calm Calm - 0.00 in   Overcast
7:53 AM 45.0 °F - 45.0 °F 100% 29.91 in 6.0 mi Calm Calm - 0.00 in   Overcast
8:05 AM 44.6 °F - 44.6 °F 100% 29.91 in 10.0 mi Calm Calm - N/A   Overcast
8:53 AM 46.0 °F 43.9 °F 44.1 °F 93% 29.92 in 10.0 mi SSE 4.6 mph - N/A   Overcast
9:07 AM 44.6 °F 41.4 °F 44.6 °F 100% 29.92 in 10.0 mi SSE 5.8 mph - N/A   Overcast
9:53 AM 46.0 °F 43.1 °F 43.0 °F 89% 29.94 in 10.0 mi SSE 5.8 mph - N/A   Overcast
10:35 AM 46.4 °F - 42.8 °F 87% 29.94 in 10.0 mi Calm Calm - N/A   Overcast
10:53 AM 46.9 °F - 43.0 °F 86% 29.95 in 10.0 mi Variable 3.5 mph - N/A   Overcast
11:53 AM 50.0 °F - 43.0 °F 77% 29.94 in 10.0 mi SSE 4.6 mph - N/A   Mostly Cloudy
12:50 PM 51.8 °F - 42.8 °F 71% 29.93 in 10.0 mi South 3.5 mph - N/A   Scattered Clouds
12:53 PM 52.0 °F - 43.0 °F 71% 29.93 in 10.0 mi Calm Calm - N/A   Scattered Clouds
1:53 PM 55.0 °F - 42.1 °F 62% 29.92 in 10.0 mi South 4.6 mph - 0.01 in   Scattered Clouds
2:53 PM 55.0 °F - 39.9 °F 57% 29.91 in 10.0 mi SW 3.5 mph - N/A   Scattered Clouds
3:53 PM 55.0 °F - 39.9 °F 57% 29.90 in 10.0 mi SSW 3.5 mph - N/A   Mostly Cloudy
4:53 PM 59.0 °F - 41.0 °F 51% 29.89 in 10.0 mi ENE 4.6 mph - N/A   Partly Cloudy
5:53 PM 59.0 °F - 39.9 °F 49% 29.90 in 10.0 mi NE 3.5 mph - N/A   Overcast
6:53 PM 57.9 °F - 39.9 °F 51% 29.91 in 10.0 mi Calm Calm - N/A   Clear
7:53 PM 54.0 °F - 42.1 °F 64% 29.90 in 10.0 mi NNW 6.9 mph - N/A   Mostly Cloudy
8:53 PM 50.0 °F - 43.0 °F 77% 29.92 in 10.0 mi SE 4.6 mph - N/A   Partly Cloudy
9:53 PM 48.9 °F - 43.0 °F 80% 29.94 in 10.0 mi Calm Calm - N/A   Clear
10:53 PM 45.0 °F - 41.0 °F 86% 29.94 in 10.0 mi Calm Calm - N/A   Clear
11:53 PM 44.1 °F - 39.9 °F 85% 29.94 in 10.0 mi Calm Calm - N/A   Clear